Weather History for Pocatello, ID

Change the Weather History Date:

Sunday, December 9, 2012

  Actual Average Record
Temperature  
Mean Temperature 22 °F 25 °F  
Max Temperature 28 °F 34 °F 60 °F (1939)
Min Temperature 15 °F 17 °F -24 °F (1972)
Degree Days  
Heating Degree Days 43 40  
Month to date heating degree days 246 350  
Since 1 July heating degree days 1697 2078  
Cooling Degree Days 0 0  
Month to date cooling degree days 0 0  
Year to date cooling degree days 560 392  
Moisture  
Dew Point 12 °F    
Average Humidity 64    
Maximum Humidity 91    
Minimum Humidity 37    
Precipitation  
Precipitation T in 0.04 in 0.28 in (1970)
Month to date precipitation 0.58 0.38  
Year to date precipitation 9.87 11.27  
Snow  
Snow 0.10 in - - ()
Month to date snowfall 0.1  
Since 1 July snowfall 7.2  
Snow Depth 0.00 in    
Sea Level Pressure  
Sea Level Pressure 30.32 in    
Wind  
Wind Speed 8 mph (SSW)    
Max Wind Speed 16 mph    
Max Gust Speed 21 mph    
Visibility 10 miles    
Events Snow    
T = Trace of Precipitation, MM = Missing Value Source: NWS Daily Summary

Daily Weather History Graph

Daily Weather History Graph

Search for Another Location

Airport:

Trip Planner

Search our weather history database for the weather conditions in past years. The results will help you decide how hot, cold, wet, or windy it might be!

Date:

Astronomy

Dec. 09, 2012 Rise Set
Actual Time 7:50 AM MST 4:55 PM MST
Civil Twilight 7:17 AM MST 5:27 PM MST
Nautical Twilight 6:42 AM MST 6:03 PM MST
Astronomical Twilight 6:07 AM MST 6:37 PM MST
Moon 3:22 AM MST (12/9) 2:08 PM MST (12/9)
Length of Visible Light 10h 10m
Length of Day
9h 05m
Waning Crescent, 18% of the Moon is Illuminated
Dec 9
Waning Crescent
Dec 13
New
Dec 19
First Quarter
Dec 28
Full
Jan 4
Last Quarter

Hourly Weather History & Observations

Time (MST) Temp. Windchill Dew Point Humidity Pressure Visibility Wind Dir Wind Speed Gust Speed Precip Events Conditions
12:08 AM 21.2 °F 10.9 °F 17.6 °F 86% 30.09 in 10.0 mi SSW 9.2 mph - N/A   Scattered Clouds
12:53 AM 23.0 °F 13.1 °F 17.1 °F 78% 30.19 in 10.0 mi SW 9.2 mph - N/A   Scattered Clouds
1:53 AM 19.9 °F 11.1 °F 17.1 °F 89% 30.19 in 10.0 mi SSW 6.9 mph - N/A   Scattered Clouds
2:04 AM 21.2 °F 14.9 °F 17.6 °F 86% 30.10 in 10.0 mi SSW 4.6 mph - N/A   Mostly Cloudy
2:53 AM 24.1 °F 17.0 °F 19.0 °F 81% 30.20 in 10.0 mi SW 5.8 mph - N/A   Overcast
3:53 AM 21.9 °F - 18.0 °F 85% 30.22 in 10.0 mi Calm Calm - N/A   Overcast
4:53 AM 21.9 °F 9.8 °F 17.1 °F 82% 30.25 in 10.0 mi NE 12.7 mph - N/A   Overcast
5:53 AM 21.0 °F 8.1 °F 17.1 °F 85% 30.29 in 2.0 mi NNE 13.8 mph - 0.00 in Snow Light Snow
6:04 AM 21.2 °F 7.8 °F 17.6 °F 86% 30.18 in 3.0 mi NE 15.0 mph 20.7 mph 0.00 in Snow Light Snow
6:53 AM 19.9 °F 9.3 °F 15.1 °F 81% 30.32 in 10.0 mi ENE 9.2 mph - 0.00 in   Mostly Cloudy
7:53 AM 18.0 °F 9.8 °F 12.0 °F 78% 30.36 in 10.0 mi ENE 5.8 mph - N/A   Scattered Clouds
8:53 AM 19.0 °F 11.1 °F 14.0 °F 81% 30.38 in 10.0 mi North 5.8 mph - N/A   Partly Cloudy
9:53 AM 23.0 °F 13.9 °F 12.9 °F 65% 30.41 in 10.0 mi NNE 8.1 mph - N/A   Partly Cloudy
10:53 AM 25.0 °F 18.1 °F 9.0 °F 51% 30.43 in 10.0 mi NNE 5.8 mph - N/A   Partly Cloudy
11:53 AM 26.1 °F 19.4 °F 7.0 °F 44% 30.41 in 10.0 mi ENE 5.8 mph - N/A   Partly Cloudy
12:53 PM 26.1 °F 21.9 °F 3.9 °F 39% 30.41 in 10.0 mi Variable 3.5 mph - N/A   Clear
1:53 PM 26.1 °F - 3.9 °F 39% 30.40 in 10.0 mi Calm Calm - N/A   Scattered Clouds
2:53 PM 27.0 °F 20.5 °F 3.9 °F 37% 30.39 in 10.0 mi WSW 5.8 mph - N/A   Scattered Clouds
3:53 PM 27.0 °F 18.0 °F 6.1 °F 41% 30.40 in 10.0 mi SW 9.2 mph - N/A   Scattered Clouds
4:53 PM 24.1 °F 15.2 °F 8.1 °F 51% 30.39 in 10.0 mi SW 8.1 mph - N/A   Partly Cloudy
5:53 PM 25.0 °F 14.2 °F 10.9 °F 55% 30.41 in 10.0 mi SW 11.5 mph - N/A   Scattered Clouds
6:53 PM 23.0 °F 12.4 °F 10.9 °F 60% 30.40 in 10.0 mi South 10.4 mph - N/A   Scattered Clouds
7:53 PM 24.1 °F 13.1 °F 10.9 °F 57% 30.40 in 10.0 mi SSW 11.5 mph - N/A   Mostly Cloudy
8:53 PM 25.0 °F 14.8 °F 12.0 °F 58% 30.40 in 10.0 mi SSW 10.4 mph - N/A   Overcast
9:53 PM 26.1 °F 13.6 °F 10.9 °F 53% 30.37 in 10.0 mi SSW 16.1 mph - N/A   Overcast
10:53 PM 26.1 °F 16.2 °F 12.0 °F 55% 30.35 in 10.0 mi SSW 10.4 mph - N/A   Overcast
11:11 PM 26.6 °F 15.2 °F 12.2 °F 55% 30.25 in 10.0 mi SW 13.8 mph - N/A   Overcast
11:53 PM 28.0 °F 17.5 °F 14.0 °F 56% 30.32 in 10.0 mi SSW 12.7 mph - N/A   Overcast